{"data":{"norad_id":81599,"epoch":"2026-09-17T21:13:14.159424Z","epoch_age_seconds":240442,"freshness":"STALE","line1":"1 81599U          26260.88419166  .00001188  00000+0  21840-2 0  9995","line2":"2 81599  67.2961  36.9461 0252194 243.9106 197.4097 13.31725544622240","mean_motion":13.31725544,"eccentricity":0.0252194,"inclination_deg":67.2961,"raan_deg":36.9461,"arg_perigee_deg":243.9106,"mean_anomaly_deg":197.4097,"bstar":0.002184,"rev_number":62224,"period_min":108.13038816352,"perigee_km":950.65222983121,"apogee_km":1329.8712399404,"semimajor_km":7518.3987348858,"source":"CELESTRAK","updated_at":"2026-09-20T09:00:32.390975Z"}}